Weather History for Elmira, NY

Change the Weather History Date:

Tuesday, August 19, 2014

  Actual Average Record
Temperature  
Mean Temperature 64 °F -  
Max Temperature 80 °F 79 °F 94 °F (1947)
Min Temperature 50 °F 54 °F 39 °F (1998)
Growing Degree Days 14 (Base 50)    
Moisture  
Dew Point 56 °F    
Average Humidity 92    
Maximum Humidity 100    
Minimum Humidity 62    
Precipitation  
Precipitation 0.00 in - - ()
Sea Level Pressure  
Sea Level Pressure 29.90 in    
Wind  
Wind Speed 1 mph (South)    
Max Wind Speed 13 mph    
Max Gust Speed -    
Visibility 4 miles    
Events Fog    
Averages and records for this station are not official NWS values.
T = Trace of Precipitation, MM = Missing Value Source: NWS Daily Summary

Daily Weather History Graph

Daily Weather History Graph

Search for Another Location

Airport:

Trip Planner

Search our weather history database for the weather conditions in past years. The results will help you decide how hot, cold, wet, or windy it might be!

Date:

Astronomy

Aug. 19, 2014 Rise Set
Actual Time 6:19 AM EDT 8:02 PM EDT
Civil Twilight 5:49 AM EDT 8:31 PM EDT
Nautical Twilight 5:13 AM EDT 9:08 PM EDT
Astronomical Twilight 4:34 AM EDT 9:46 PM EDT
Moon 1:07 AM EDT (8/19) 3:58 PM EDT (8/19)
Length of Visible Light 14h 42m
Length of Day
13h 42m
Waning Crescent, 29% of the Moon is Illuminated
Aug 19
Waning Crescent
Aug 25
New
Sep 2
First Quarter
Sep 8
Full
Sep 15
Last Quarter

Hourly Weather History & Observations

Time (EDT) Temp. Dew Point Humidity Pressure Visibility Wind Dir Wind Speed Gust Speed Precip Events Conditions
12:53 AM 53.1 °F 53.1 °F 100% 29.91 in 10.0 mi Calm Calm - N/A   Clear
1:06 AM 51.8 °F 50.0 °F 94% 29.92 in 1.5 mi Calm Calm - N/A   Clear
1:28 AM 51.8 °F 51.8 °F 100% 29.92 in 0.2 mi Calm Calm - N/A Fog Fog
1:44 AM 51.8 °F 51.8 °F 100% 29.91 in 0.8 mi Calm Calm - N/A   Clear
1:53 AM 51.1 °F 51.1 °F 100% 29.91 in 0.5 mi Calm Calm - N/A Fog Fog
2:19 AM 51.8 °F 51.8 °F 100% 29.91 in 1.2 mi Calm Calm - N/A   Scattered Clouds
2:21 AM 51.8 °F 51.8 °F 100% 29.91 in 3.0 mi Calm Calm - N/A   Partly Cloudy
2:53 AM 51.1 °F 50.0 °F 96% 29.90 in 10.0 mi Calm Calm - N/A   Partly Cloudy
3:06 AM 50.0 °F 50.0 °F 100% 29.91 in 4.0 mi Calm Calm - N/A   Mostly Cloudy
3:09 AM 50.0 °F 50.0 °F 100% 29.91 in 1.2 mi Calm Calm - N/A   Mostly Cloudy
3:17 AM 50.0 °F 50.0 °F 100% 29.91 in 0.5 mi Calm Calm - N/A Fog Fog
3:27 AM 51.8 °F 51.8 °F 100% 29.91 in 2.0 mi Calm Calm - N/A   Overcast
3:31 AM 53.6 °F 51.8 °F 94% 29.91 in 0.8 mi Calm Calm - N/A   Overcast
3:38 AM 53.6 °F 53.6 °F 100% 29.91 in 0.2 mi SW 3.5 mph - N/A Fog Fog
3:53 AM 51.1 °F 51.1 °F 100% 29.91 in 0.8 mi Calm Calm - N/A   Mist
3:56 AM 51.8 °F 51.8 °F 100% 29.91 in 3.0 mi Calm Calm - N/A   Overcast
4:19 AM 51.8 °F 51.8 °F 100% 29.91 in 1.5 mi Calm Calm - N/A   Overcast
4:28 AM 51.8 °F 51.8 °F 100% 29.91 in 0.2 mi Calm Calm - N/A Fog Fog
4:45 AM 51.8 °F 51.8 °F 100% 29.91 in 0.5 mi Calm Calm - N/A Fog Fog
5:00 AM 53.6 °F 51.8 °F 94% 29.90 in 2.0 mi Calm Calm - N/A   Overcast
5:07 AM 53.6 °F 53.6 °F 100% 29.90 in 0.8 mi Calm Calm - N/A   Mist
5:20 AM 53.6 °F 53.6 °F 100% 29.90 in 0.2 mi Calm Calm - N/A Fog Fog
5:53 AM 53.1 °F 53.1 °F 100% 29.90 in 0.2 mi Calm Calm - N/A Fog Fog
6:53 AM 52.0 °F 52.0 °F 100% 29.91 in 0.1 mi Calm Calm - N/A Fog Fog
8:32 AM 53.6 °F 53.6 °F 100% 29.91 in 0.5 mi Calm Calm - N/A Fog Fog
8:51 AM 55.4 °F 55.4 °F 100% 29.91 in 3.0 mi Calm Calm - N/A   Overcast
8:53 AM 55.0 °F 55.0 °F 100% 29.91 in 3.0 mi Calm Calm - N/A   Overcast
9:04 AM 55.4 °F 55.4 °F 100% 29.91 in 1.5 mi Calm Calm - N/A   Overcast
9:29 AM 57.2 °F 55.4 °F 94% 29.91 in 8.0 mi Calm Calm - N/A   Mostly Cloudy
9:38 AM 57.2 °F 55.4 °F 94% 29.91 in 8.0 mi East 3.5 mph - N/A   Scattered Clouds
9:53 AM 59.0 °F 57.9 °F 96% 29.91 in 9.0 mi Calm Calm - N/A   Partly Cloudy
10:53 AM 69.1 °F 59.0 °F 70% 29.91 in 10.0 mi NE 3.5 mph - N/A   Clear
11:53 AM 73.9 °F 61.0 °F 64% 29.89 in 10.0 mi Variable 3.5 mph - N/A   Mostly Cloudy
12:53 PM 77.0 °F 63.0 °F 62% 29.87 in 10.0 mi East 4.6 mph - N/A   Scattered Clouds
1:53 PM 78.1 °F 64.0 °F 62% 29.87 in 10.0 mi Calm Calm - N/A   Mostly Cloudy
2:53 PM 78.1 °F 64.9 °F 64% 29.85 in 10.0 mi Variable 5.8 mph - N/A   Mostly Cloudy
3:53 PM 78.1 °F 66.9 °F 68% 29.85 in 10.0 mi SW 6.9 mph - N/A   Overcast
4:53 PM 79.0 °F 66.0 °F 64% 29.84 in 10.0 mi SSW 12.7 mph - N/A   Clear
5:53 PM 78.1 °F 66.0 °F 66% 29.84 in 10.0 mi SSW 8.1 mph - N/A   Partly Cloudy
6:53 PM 77.0 °F 66.0 °F 69% 29.85 in 10.0 mi SSW 5.8 mph - N/A   Partly Cloudy
7:53 PM 73.0 °F 66.0 °F 79% 29.86 in 9.0 mi Calm Calm - N/A   Clear
8:53 PM 68.0 °F 64.9 °F 90% 29.87 in 8.0 mi Calm Calm - N/A   Clear
9:53 PM 64.0 °F 63.0 °F 96% 29.89 in 6.0 mi Calm Calm - N/A   Clear
10:53 PM 63.0 °F 62.1 °F 97% 29.89 in 6.0 mi Calm Calm - N/A   Clear
11:53 PM 61.0 °F 61.0 °F 100% 29.90 in 0.5 mi Calm Calm - N/A Fog Fog
11:59 PM 62.6 °F 62.6 °F 100% 29.91 in 1.2 mi Calm Calm - N/A   Clear